sat.trackr.live / text

‹ back to catalog

EUTELSAT 8 WEST B

NORAD 40875 · 2015-039B

PAYLOAD ACTIVE UNKNOWN

§ Identity

Operator
Country
EUTE
Launch date
2015-08-20
Launch site
FRGUI
Launch vehicle
Mass (kg)
RCS (m²)
7.42

Purposes: comms

External: N2YO · Heavens-Above · Gunter

§ Orbital elements

Epoch: 2026-05-25T03:42:17.485056Z

Period
1,436.10 min
Inclination
0.0655°
Eccentricity
0.0003917
Mean motion
1.00271640 rev/d
Perigee alt
35,770.1 km
Apogee alt
35,803.2 km
Semi-major
42,164.8 km
B*
0.0000e+0
RAAN
355.3608°
Arg perigee
67.1327°
Mean anomaly
227.8335°
Rev number
3,942

§ Raw data

EUTELSAT 8 WEST B1 40875U 15039B   26145.15436904 -.00000068  00000+0  00000+0 0  99952 40875   0.0655 355.3608 0003917  67.1327 227.8335  1.00271640 39427

JSON: /api/v1/satellites/40875 · /tle

For live sub-satellite position, see the globe view (requires WebGL).

§ Visibility from observer

Set your observer location to see the next 7 days of passes ≥ 10°. The values pass through the URL so the page stays shareable.

No JS? Fill the form by hand. The geolocation button needs JavaScript.